Group_ship,Cruise,JD_GMT,Date_DDMMYYYY,TIME_HH:MM:SS,Lat_dec_degree,Long_dec_degree,xCO2eq_ppm,xCO2a_ppm,Pres_Equi_hPa,Pres_sealevel_hPa,EqTemp_C,SST(TSG)_C,Sal(TSG)_Permil,Water_flow_l/min,Gasflow_IR_ml/min,Temp_IR_C,Pres_IR_hPa,Ship_heading_true_degree,Ship_speed_knot,Wind_dir_rel_degree,Wind_speed_rel_m/s,fCO2W@SST_uatm,Qcflag_water,fCO2a_uatm,Qcflag_air,dfCO2_uatm,Fluoro_ug/l,Wind_speed_true_m/s,Wind_dir_true_degree,Air_temp_C,Oxygen
AOML_Explorer,Ex0726E9,173.991,22062007,23:47:10,40.227,-73.574,389.70,-9.00,1009.21,1006.60,19.12,18.77,30.929,1.366,102.295,31.307,1009.215,138.500,21.300,154.000,3.088,373.09,2,-9.00,9,-9.00,0.31,13.76,312.96,22.02,300.34
AOML_Explorer,Ex0726E9,173.993,22062007,23:49:43,40.215,-73.561,394.07,-9.00,1009.25,1006.60,19.10,18.80,30.936,1.361,101.648,31.307,1009.252,138.800,21.400,143.000,2.059,378.15,2,-9.00,9,-9.00,0.29,12.65,313.18,22.07,299.32
AOML_Explorer,Ex0726E9,173.995,22062007,23:52:16,40.204,-73.548,396.40,-9.00,1009.25,1006.60,19.08,18.87,30.978,1.364,101.882,31.304,1009.249,138.100,21.300,171.000,1.029,381.63,2,-9.00,9,-9.00,0.31,11.98,317.38,22.05,300.41
AOML_Explorer,Ex0726E9,173.996,22062007,23:54:49,40.193,-73.535,398.06,-9.00,1009.27,1006.60,19.12,18.92,31.012,1.349,101.996,31.302,1009.269,137.900,21.400,196.000,0.000,383.59,2,-9.00,9,-9.00,0.30,11.02,318.04,21.98,297.62
AOML_Explorer,Ex0726E9,173.998,22062007,23:57:22,40.181,-73.522,398.78,-9.00,1009.26,1006.60,19.16,19.00,31.062,1.376,102.341,31.298,1009.255,138.100,21.500,189.000,0.000,384.67,2,-9.00,9,-9.00,0.27,11.05,318.09,21.66,296.41
AOML_Explorer,Ex0726E9,174.000,22062007,23:59:55,40.170,-73.509,399.41,-9.00,1009.32,1006.60,19.22,19.02,31.091,1.372,102.121,31.299,1009.325,138.100,21.500,331.000,0.515,384.82,2,-9.00,9,-9.00,0.27,10.60,319.37,21.27,296.61
AOML_Explorer,Ex0726E9,174.015,23062007,0:21:40,40.073,-73.396,401.49,-9.00,1009.55,1006.90,18.94,18.60,31.434,2.290,102.312,31.371,1009.555,138.300,21.600,228.000,1.544,384.68,2,-9.00,9,-9.00,0.31,12.20,323.68,20.51,295.45
AOML_Explorer,Ex0726E9,174.017,23062007,0:24:13,40.062,-73.382,403.55,-9.00,1009.58,1006.90,18.86,18.63,31.433,2.052,102.286,31.375,1009.584,138.700,21.600,218.000,0.000,388.57,2,-9.00,9,-9.00,0.31,11.07,318.60,20.41,295.56
AOML_Explorer,Ex0726E9,174.019,23062007,0:26:46,40.050,-73.370,403.79,-9.00,1009.58,1006.90,18.87,18.65,31.419,2.031,102.361,31.378,1009.583,143.900,21.700,143.000,3.088,388.94,2,-9.00,9,-9.00,0.33,13.65,315.91,20.33,295.60
AOML_Explorer,Ex0726E9,174.020,23062007,0:29:19,40.037,-73.360,403.48,-9.00,1009.57,1006.80,18.88,18.66,31.429,2.047,101.897,31.374,1009.567,153.700,21.600,101.000,4.118,388.64,2,-9.00,9,-9.00,0.32,12.48,315.07,20.34,295.69
AOML_Explorer,Ex0726E9,174.022,23062007,0:31:52,40.023,-73.352,402.98,-9.00,1009.57,1006.70,18.93,18.72,31.421,2.031,102.407,31.324,1009.572,163.500,21.800,97.000,3.603,388.20,2,-9.00,9,-9.00,0.29,12.09,326.64,20.42,293.94
AOML_Explorer,Ex0726E9,174.024,23062007,0:34:25,40.008,-73.349,403.56,-9.00,1009.58,1006.60,18.97,18.78,31.245,2.027,102.142,31.269,1009.577,173.800,21.800,91.000,5.147,388.99,2,-9.00,9,-9.00,0.29,12.38,329.51,20.53,292.38
AOML_Explorer,Ex0726E9,174.026,23062007,0:36:58,39.992,-73.348,403.65,-9.00,1009.56,1006.60,18.98,19.00,31.157,2.028,102.386,31.218,1009.557,178.600,21.900,71.000,6.176,392.63,2,-9.00,9,-9.00,0.29,10.80,326.10,20.47,290.56
AOML_Explorer,Ex0726E9,174.027,23062007,0:39:31,39.977,-73.347,404.18,-9.00,1009.68,1006.90,19.10,19.17,31.135,2.033,102.450,31.149,1009.677,178.100,21.900,82.000,6.176,393.78,2,-9.00,9,-9.00,0.33,11.95,327.56,20.41,290.08
AOML_Explorer,Ex0726E9,174.029,23062007,0:42:04,39.961,-73.346,404.47,-9.00,1009.74,1006.60,19.27,19.29,31.127,2.060,102.424,31.078,1009.741,177.200,21.900,91.000,5.147,393.28,2,-9.00,9,-9.00,0.32,12.34,332.70,20.5,289.61
AOML_Explorer,Ex0726E9,174.031,23062007,0:44:37,39.946,-73.346,399.89,-9.00,1009.81,1006.50,19.42,19.29,31.152,2.043,102.431,31.012,1009.805,177.600,21.800,95.000,4.632,386.34,2,-9.00,9,-9.00,0.30,12.39,335.81,20.54,288.43
AOML_Explorer,Ex0726E9,174.033,23062007,0:47:10,39.931,-73.345,396.80,-9.00,1009.87,1006.90,19.49,19.27,31.173,2.052,102.684,30.949,1009.873,177.200,21.800,98.000,4.632,382.03,2,-9.00,9,-9.00,0.27,12.60,335.99,20.49,286.84
AOML_Explorer,Ex0726E9,174.035,23062007,0:49:43,39.915,-73.344,401.22,-9.00,1009.89,1007.00,19.50,19.21,31.208,2.034,102.821,30.881,1009.886,177.300,21.700,97.000,4.632,385.14,2,-9.00,9,-9.00,0.29,12.54,335.89,20.5,286.45
AOML_Explorer,Ex0726E9,174.036,23062007,0:52:16,39.900,-73.343,408.21,-9.00,1009.86,1007.00,19.47,19.23,31.166,2.054,102.573,30.814,1009.860,177.300,21.700,72.000,4.118,392.63,2,-9.00,9,-9.00,0.31,10.57,335.79,20.48,286.26
AOML_Explorer,Ex0726E9,174.038,23062007,0:54:49,39.885,-73.342,411.19,-9.00,1009.92,1007.00,19.43,19.31,31.162,2.036,102.748,30.745,1009.922,178.000,21.700,83.000,4.632,397.55,2,-9.00,9,-9.00,0.41,11.43,334.41,20.48,286.05
AOML_Explorer,Ex0726E9,174.040,23062007,0:57:22,39.870,-73.341,410.38,-9.00,1010.01,1007.10,19.45,19.54,31.138,2.060,102.792,30.676,1010.006,177.100,21.700,85.000,6.691,400.12,2,-9.00,9,-9.00,0.48,12.44,324.98,20.47,286.07
AOML_Explorer,Ex0726E9,174.042,23062007,0:59:55,39.854,-73.340,405.07,-9.00,1010.03,1007.30,19.56,19.73,31.173,2.093,102.984,30.616,1010.031,177.400,21.700,79.000,6.176,396.19,2,-9.00,9,-9.00,0.51,11.59,326.16,20.52,284.69
AOML_Explorer,Ex0726E9,174.057,23062007,1:21:40,39.725,-73.317,362.61,-9.00,1010.38,1007.60,20.01,19.89,31.280,2.082,102.924,30.259,1010.383,179.100,21.700,104.000,5.147,350.43,2,-9.00,9,-9.00,0.53,13.31,337.07,20.53,277.43
AOML_Explorer,Ex0726E9,174.058,23062007,1:24:13,39.710,-73.317,362.00,-9.00,1010.46,1007.40,20.03,19.87,31.300,2.117,102.865,30.225,1010.457,179.800,21.700,110.000,5.147,349.24,2,-9.00,9,-9.00,0.56,13.74,339.16,20.56,277.54
AOML_Explorer,Ex0726E9,174.060,23062007,1:26:46,39.695,-73.317,362.19,-9.00,1010.43,1007.70,20.05,19.88,31.284,2.085,103.133,30.195,1010.434,178.600,21.800,115.000,4.632,349.44,2,-9.00,9,-9.00,0.55,13.69,340.52,20.56,278.58
AOML_Explorer,Ex0726E9,174.062,23062007,1:29:19,39.679,-73.316,360.00,-9.00,1010.46,1007.60,20.03,19.84,31.284,2.095,102.892,30.159,1010.461,181.400,21.900,114.000,5.147,346.93,2,-9.00,9,-9.00,0.56,14.05,341.86,20.59,279.52
AOML_Explorer,Ex0726E9,174.064,23062007,1:31:52,39.664,-73.317,355.47,-9.00,1010.51,1007.80,20.02,19.81,31.283,2.116,103.282,30.128,1010.508,179.900,21.800,92.000,3.603,342.31,2,-9.00,9,-9.00,0.56,11.79,342.40,20.55,280.01
AOML_Explorer,Ex0726E9,174.066,23062007,1:34:25,39.648,-73.317,350.66,-9.00,1010.60,1007.70,19.99,19.79,31.300,2.109,103.019,30.099,1010.598,180.000,21.600,108.000,6.691,337.77,2,-9.00,9,-9.00,0.53,14.55,334.03,20.52,279.70
AOML_Explorer,Ex0726E9,174.067,23062007,1:36:58,39.633,-73.317,347.82,-9.00,1010.65,1007.90,19.97,19.69,31.344,2.102,103.298,30.067,1010.645,179.900,21.600,114.000,5.662,334.11,2,-9.00,9,-9.00,0.52,14.29,338.34,20.59,279.74
AOML_Explorer,Ex0726E9,174.069,23062007,1:39:31,39.618,-73.317,348.00,-9.00,1010.70,1007.90,19.94,19.50,31.320,2.085,103.370,30.037,1010.700,179.500,21.700,80.000,3.603,332.14,2,-9.00,9,-9.00,0.56,11.04,340.91,20.54,280.37
AOML_Explorer,Ex0726E9,174.071,23062007,1:42:04,39.602,-73.317,351.08,-9.00,1010.73,1008.00,19.81,19.41,31.242,2.113,102.871,30.013,1010.733,179.800,21.700,124.000,3.088,335.63,2,-9.00,9,-9.00,0.58,13.07,348.55,20.54,282.22
AOML_Explorer,Ex0726E9,174.073,23062007,1:44:37,39.587,-73.317,351.78,-9.00,1010.74,1008.10,19.67,19.47,31.225,2.098,103.263,29.983,1010.739,179.900,21.700,78.000,2.574,339.08,2,-9.00,9,-9.00,0.56,10.86,346.75,20.54,282.57
AOML_Explorer,Ex0726E9,174.074,23062007,1:47:10,39.572,-73.317,346.81,-9.00,1010.69,1008.00,19.63,19.57,31.225,2.044,103.318,29.955,1010.691,179.200,21.800,106.000,5.147,336.25,2,-9.00,9,-9.00,0.54,13.41,337.64,20.46,282.46
AOML_Explorer,Ex0726E9,174.076,23062007,1:49:43,39.556,-73.316,343.93,-9.00,1010.63,1008.00,19.69,19.63,31.240,2.078,103.199,29.935,1010.625,180.400,21.800,111.000,5.147,333.44,2,-9.00,9,-9.00,0.51,13.80,339.82,20.44,282.25
AOML_Explorer,Ex0726E9,174.078,23062007,1:52:16,39.541,-73.316,344.03,-9.00,1010.70,1008.00,19.79,19.63,31.206,2.094,103.559,29.909,1010.703,179.300,21.800,96.000,3.603,332.08,2,-9.00,9,-9.00,0.45,12.06,342.37,20.41,282.44
AOML_Explorer,Ex0726E9,174.080,23062007,1:54:49,39.525,-73.316,345.35,-9.00,1010.76,1008.00,19.79,19.62,31.199,2.086,103.102,29.882,1010.765,178.900,21.700,87.000,2.574,333.38,2,-9.00,9,-9.00,0.38,11.26,346.11,20.46,281.45
AOML_Explorer,Ex0726E9,174.082,23062007,1:57:22,39.510,-73.316,348.50,-9.00,1010.76,1008.00,19.80,19.56,31.206,2.083,103.053,29.860,1010.759,179.700,21.700,106.000,4.632,335.48,2,-9.00,9,-9.00,0.34,13.16,340.03,20.43,281.29
AOML_Explorer,Ex0726E9,174.083,23062007,1:59:55,39.495,-73.316,353.85,-9.00,1010.80,1008.10,19.79,19.49,31.227,2.104,103.313,29.846,1010.800,179.400,21.700,92.000,4.118,339.83,2,-9.00,9,-9.00,0.31,11.93,339.47,20.46,280.53
AOML_Explorer,Ex0726E9,174.098,23062007,2:21:40,39.380,-73.315,375.11,-9.00,1011.05,1008.30,19.44,19.16,31.509,2.053,103.303,29.772,1011.046,0.000,0.000,97.000,3.088,360.79,2,-9.00,9,-9.00,0.29,12.09,343.75,20.27,278.46
AOML_Explorer,Ex0726E9,174.100,23062007,2:24:13,39.347,-73.315,376.18,-9.00,1011.07,1008.40,19.44,19.08,31.562,2.185,103.719,29.730,1011.070,178.600,11.000,99.000,2.059,360.60,2,-9.00,9,-9.00,0.26,11.85,348.91,20.23,278.37
AOML_Explorer,Ex0726E9,174.102,23062007,2:26:46,39.331,-73.314,382.41,-9.00,1011.09,1008.40,19.37,19.16,31.579,2.218,103.689,29.674,1011.093,178.300,22.200,133.000,2.059,368.72,2,-9.00,9,-9.00,0.25,12.89,351.75,20.24,277.55
AOML_Explorer,Ex0726E9,174.104,23062007,2:29:19,39.316,-73.314,390.08,-9.00,1011.15,1008.40,19.35,18.88,31.628,2.204,103.471,29.604,1011.150,178.700,22.200,87.000,2.574,372.16,2,-9.00,9,-9.00,0.26,11.55,346.12,20.24,277.29
AOML_Explorer,Ex0726E9,174.105,23062007,2:31:52,39.300,-73.313,395.82,-9.00,1011.13,1008.50,19.31,18.83,31.632,2.174,103.503,29.545,1011.129,178.500,22.200,78.000,2.574,377.47,2,-9.00,9,-9.00,0.22,11.10,345.75,20.17,276.71
AOML_Explorer,Ex0726E9,174.107,23062007,2:34:25,39.284,-73.313,399.19,-9.00,1011.11,1008.40,19.11,18.99,31.627,2.179,103.117,29.475,1011.110,178.500,22.000,94.000,1.544,386.61,2,-9.00,9,-9.00,0.22,11.47,351.11,20.11,276.17
AOML_Explorer,Ex0726E9,174.109,23062007,2:36:58,39.269,-73.312,401.69,-9.00,1011.07,1008.40,19.12,19.12,31.636,2.182,103.601,29.412,1011.071,178.200,21.800,115.000,3.603,390.86,2,-9.00,9,-9.00,0.22,12.99,343.24,20.09,276.19
AOML_Explorer,Ex0726E9,174.111,23062007,2:39:31,39.253,-73.312,404.07,-9.00,1011.03,1008.30,19.26,19.10,31.793,2.163,103.681,29.352,1011.032,183.900,21.800,91.000,2.574,390.48,2,-9.00,9,-9.00,0.18,11.44,351.10,20.08,275.52
AOML_Explorer,Ex0726E9,174.113,23062007,2:42:04,39.238,-73.313,407.21,-9.00,1011.13,1008.40,19.32,19.03,31.885,2.195,103.585,29.295,1011.130,183.000,21.800,83.000,3.088,391.45,2,-9.00,9,-9.00,0.16,11.13,347.34,20.13,275.12
AOML_Explorer,Ex0726E9,174.114,23062007,2:44:37,39.222,-73.315,419.47,-9.00,1011.18,1008.50,19.32,18.83,31.945,2.178,103.714,29.246,1011.179,187.400,21.800,96.000,3.603,399.94,2,-9.00,9,-9.00,0.16,12.00,349.95,20.16,275.80
AOML_Explorer,Ex0726E9,174.116,23062007,2:47:10,39.207,-73.317,428.30,-9.00,1011.34,1008.40,19.18,18.66,32.011,2.140,104.012,29.183,1011.337,185.500,21.800,72.000,3.088,408.01,2,-9.00,9,-9.00,0.14,10.54,349.84,20.13,275.53
AOML_Explorer,Ex0726E9,174.118,23062007,2:49:43,39.192,-73.319,431.21,-9.00,1011.29,1008.60,19.07,18.38,32.064,2.174,104.015,29.104,1011.287,185.300,21.800,84.000,3.088,408.10,2,-9.00,9,-9.00,0.15,11.21,349.75,20.12,276.30
AOML_Explorer,Ex0726E9,174.120,23062007,2:52:16,39.177,-73.321,432.27,-9.00,1011.30,1008.50,18.87,18.55,32.058,2.170,104.068,29.049,1011.296,185.000,21.800,91.000,2.059,415.35,2,-9.00,9,-9.00,0.17,11.36,354.77,20.07,275.75
AOML_Explorer,Ex0726E9,174.121,23062007,2:54:49,39.161,-73.323,428.82,-9.00,1011.25,1008.60,18.77,18.83,32.016,2.179,103.836,29.021,1011.246,185.300,21.800,92.000,3.088,418.57,2,-9.00,9,-9.00,0.17,11.63,350.17,20.03,274.84
AOML_Explorer,Ex0726E9,174.123,23062007,2:57:22,39.146,-73.324,426.10,-9.00,1011.27,1008.70,18.88,18.65,32.060,2.059,104.157,29.009,1011.272,178.800,21.700,48.000,2.059,410.95,2,-9.00,9,-9.00,0.16,9.82,350.00,20.03,276.39
AOML_Explorer,Ex0726E9,174.125,23062007,2:59:55,39.131,-73.323,426.12,-9.00,1011.34,1008.70,19.03,18.52,31.981,2.095,103.589,29.004,1011.335,178.000,21.800,69.000,2.574,406.24,2,-9.00,9,-9.00,0.16,10.48,345.15,20.02,278.35
AOML_Explorer,Ex0726E9,174.140,23062007,3:21:40,38.999,-73.310,427.38,-9.00,1011.36,1008.70,19.27,19.09,31.993,2.043,104.024,29.035,1011.362,175.200,22.100,13.000,1.544,412.80,2,-9.00,9,-9.00,0.18,9.86,353.43,19.86,273.51
AOML_Explorer,Ex0726E9,174.142,23062007,3:24:13,38.983,-73.308,424.79,-9.00,1011.34,1008.70,19.30,19.14,32.002,2.051,103.588,29.038,1011.340,174.900,22.200,51.000,2.574,410.67,2,-9.00,9,-9.00,0.17,9.88,343.63,19.8,273.06
AOML_Explorer,Ex0726E9,174.144,23062007,3:26:46,38.967,-73.306,423.99,-9.00,1011.33,1008.70,19.33,19.08,32.036,2.017,103.573,29.034,1011.334,174.900,22.200,44.000,2.574,408.27,2,-9.00,9,-9.00,0.16,9.62,344.55,19.79,273.14
AOML_Explorer,Ex0726E9,174.145,23062007,3:29:19,38.952,-73.305,425.02,-9.00,1011.32,1008.70,19.33,19.02,32.061,1.954,103.579,29.035,1011.324,174.800,22.100,55.000,2.574,408.30,2,-9.00,9,-9.00,0.15,10.01,343.25,19.8,273.25
AOML_Explorer,Ex0726E9,174.147,23062007,3:31:52,38.936,-73.303,426.59,-9.00,1011.29,1008.70,19.28,19.01,32.089,2.045,103.938,29.036,1011.293,175.200,22.000,33.000,1.029,410.57,2,-9.00,9,-9.00,0.13,10.41,352.38,19.8,273.25
AOML_Explorer,Ex0726E9,174.149,23062007,3:34:25,38.921,-73.302,428.18,-9.00,1011.37,1008.70,19.30,18.91,32.117,1.982,104.203,29.028,1011.375,175.400,22.000,74.000,2.059,410.21,2,-9.00,9,-9.00,0.12,10.82,345.16,19.82,273.47
AOML_Explorer,Ex0726E9,174.151,23062007,3:36:58,38.905,-73.300,431.10,-9.00,1011.45,1008.80,19.19,18.69,32.216,1.964,104.277,29.030,1011.450,175.600,22.000,75.000,2.059,411.09,2,-9.00,9,-9.00,0.11,10.81,345.03,19.87,273.45
AOML_Explorer,Ex0726E9,174.152,23062007,3:39:31,38.904,-73.300,433.96,-9.00,1011.45,1008.90,19.06,18.37,32.296,1.974,103.806,29.032,1011.449,0.000,0.000,51.000,2.059,410.70,2,-9.00,9,-9.00,0.09,9.99,346.32,19.8,274.10
AOML_Explorer,Ex0726E9,174.154,23062007,3:42:04,38.904,-73.300,436.20,-9.00,1011.48,1008.90,18.84,18.22,32.390,1.961,103.829,29.024,1011.481,0.000,0.000,72.000,1.029,414.12,2,-9.00,9,-9.00,0.09,10.93,350.18,19.78,274.25
AOML_Explorer,Ex0726E9,174.156,23062007,3:44:37,38.904,-73.300,436.93,-9.00,1011.51,1008.90,18.71,18.09,32.412,1.956,104.132,29.016,1011.511,0.000,0.000,61.000,1.029,414.86,2,-9.00,9,-9.00,0.09,10.81,350.27,19.77,274.95
AOML_Explorer,Ex0726E9,174.158,23062007,3:47:10,38.904,-73.300,436.93,-9.00,1011.56,1008.90,18.50,18.08,32.398,1.995,103.698,29.014,1011.561,0.000,0.000,52.000,1.544,418.44,2,-9.00,9,-9.00,0.09,10.42,348.32,19.73,274.71
AOML_Explorer,Ex0726E9,174.160,23062007,3:49:43,38.904,-73.300,435.16,-9.00,1011.58,1008.90,18.40,18.02,32.435,1.923,103.614,29.004,1011.579,0.000,0.000,32.000,1.544,417.53,2,-9.00,9,-9.00,0.09,10.03,350.57,19.68,275.15
AOML_Explorer,Ex0726E9,174.161,23062007,3:52:16,38.904,-73.300,433.55,-9.00,1011.52,1009.00,18.33,18.22,32.439,2.040,103.724,28.993,1011.522,0.000,0.000,51.000,1.029,420.65,2,-9.00,9,-9.00,0.10,10.69,350.89,19.64,274.28
AOML_Explorer,Ex0726E9,174.163,23062007,3:54:49,38.797,-73.288,430.99,-9.00,1011.55,1008.90,18.41,18.37,32.439,2.098,103.315,28.985,1011.552,174.500,22.200,29.000,0.515,419.23,2,-9.00,9,-9.00,0.10,10.88,353.60,19.6,273.48
AOML_Explorer,Ex0726E9,174.165,23062007,3:57:22,38.782,-73.287,430.35,-9.00,1011.60,1009.00,18.57,18.38,32.445,2.050,104.329,28.979,1011.604,174.600,22.200,29.000,1.029,416.02,2,-9.00,9,-9.00,0.10,10.45,352.14,19.56,273.46
AOML_Explorer,Ex0726E9,174.167,23062007,3:59:55,38.766,-73.285,431.52,-9.00,1011.63,1009.00,18.66,18.34,32.448,2.096,103.932,28.968,1011.630,177.100,22.300,33.000,2.574,414.91,2,-9.00,9,-9.00,0.10,9.34,348.91,19.55,273.87
AOML_Explorer,Ex0726E9,174.182,23062007,4:21:40,38.704,-73.281,416.57,-9.00,1011.68,1009.10,18.22,17.78,32.688,2.066,103.493,28.942,1011.684,0.000,0.000,19.000,2.059,398.71,2,-9.00,9,-9.00,0.10,9.41,353.31,19.42,278.80
AOML_Explorer,Ex0726E9,174.183,23062007,4:24:13,38.704,-73.281,412.64,-9.00,1011.67,1009.00,18.16,17.45,32.738,2.038,103.397,28.921,1011.665,0.000,0.000,23.000,2.574,390.81,2,-9.00,9,-9.00,0.10,8.96,352.34,19.37,280.49
AOML_Explorer,Ex0726E9,174.185,23062007,4:26:46,38.704,-73.281,407.66,-9.00,1011.66,1009.00,18.03,17.44,32.739,1.865,103.875,28.899,1011.664,0.000,0.000,23.000,2.574,387.83,2,-9.00,9,-9.00,0.11,9.00,352.70,19.34,281.17
AOML_Explorer,Ex0726E9,174.187,23062007,4:29:19,38.585,-73.282,401.80,-9.00,1011.71,1009.10,17.83,17.49,32.699,1.835,104.012,28.884,1011.711,181.000,22.400,30.000,3.603,386.29,2,-9.00,9,-9.00,0.10,8.40,349.36,19.29,281.32
AOML_Explorer,Ex0726E9,174.189,23062007,4:31:52,38.569,-73.282,397.19,-9.00,1011.72,1009.10,17.84,17.51,32.758,1.870,104.126,28.860,1011.717,179.300,22.400,25.000,3.088,382.12,2,-9.00,9,-9.00,0.10,8.70,351.01,19.29,282.06
AOML_Explorer,Ex0726E9,174.191,23062007,4:34:25,38.553,-73.281,394.91,-9.00,1011.75,1009.20,17.90,17.59,32.619,1.848,103.393,28.833,1011.753,174.900,22.500,337.000,2.574,380.25,2,-9.00,9,-9.00,0.10,9.12,1.81,19.27,282.56
AOML_Explorer,Ex0726E9,174.192,23062007,4:36:58,38.538,-73.279,394.21,-9.00,1011.71,1009.10,17.83,17.52,32.740,1.862,103.740,28.820,1011.707,175.300,22.300,351.000,4.118,379.55,2,-9.00,9,-9.00,0.11,7.42,0.99,19.23,282.51
AOML_Explorer,Ex0726E9,174.194,23062007,4:39:31,38.522,-73.278,393.11,-9.00,1011.71,1009.10,17.90,17.33,32.749,1.846,104.115,28.802,1011.705,177.500,22.400,4.000,4.118,374.44,2,-9.00,9,-9.00,0.11,7.34,355.92,19.2,283.60
AOML_Explorer,Ex0726E9,174.196,23062007,4:42:04,38.506,-73.277,393.22,-9.00,1011.68,1009.20,17.80,17.36,32.782,1.842,103.859,28.796,1011.676,177.400,22.200,10.000,5.147,376.69,2,-9.00,9,-9.00,0.12,6.34,350.68,19.17,283.69
AOML_Explorer,Ex0726E9,174.198,23062007,4:44:37,38.490,-73.276,392.03,-9.00,1011.69,1009.10,17.80,17.25,32.750,1.848,103.611,28.787,1011.692,177.900,22.200,14.000,5.147,373.73,2,-9.00,9,-9.00,0.12,6.48,348.34,19.14,284.60
AOML_Explorer,Ex0726E9,174.199,23062007,4:47:10,38.475,-73.275,391.86,-9.00,1011.67,1009.20,17.76,17.39,32.670,1.834,103.788,28.777,1011.668,177.700,22.300,6.000,4.632,376.52,2,-9.00,9,-9.00,0.12,6.83,355.06,19.2,284.63
AOML_Explorer,Ex0726E9,174.201,23062007,4:49:43,38.459,-73.275,390.60,-9.00,1011.71,1009.20,17.69,17.39,32.728,1.848,103.990,28.761,1011.713,177.900,22.200,6.000,5.147,376.30,2,-9.00,9,-9.00,0.11,6.29,354.82,19.21,284.05
AOML_Explorer,Ex0726E9,174.203,23062007,4:52:16,38.443,-73.274,390.05,-9.00,1011.68,1009.20,17.79,17.44,32.720,1.779,103.743,28.750,1011.678,177.900,22.200,14.000,4.632,374.95,2,-9.00,9,-9.00,0.11,6.91,350.25,19.21,283.50
AOML_Explorer,Ex0726E9,174.205,23062007,4:54:49,38.428,-73.273,390.61,-9.00,1011.68,1009.20,17.81,17.58,32.719,1.820,103.779,28.741,1011.678,177.200,22.100,13.000,3.603,377.41,2,-9.00,9,-9.00,0.10,7.87,352.53,19.21,281.48
AOML_Explorer,Ex0726E9,174.207,23062007,4:57:22,38.412,-73.272,390.69,-9.00,1011.71,1009.20,17.84,17.75,32.773,1.760,103.957,28.735,1011.715,177.000,22.100,7.000,4.632,379.49,2,-9.00,9,-9.00,0.10,6.74,354.09,19.15,280.13
AOML_Explorer,Ex0726E9,174.208,23062007,4:59:55,38.396,-73.271,391.73,-9.00,1011.50,1009.30,17.96,17.79,32.826,1.734,104.244,28.723,1011.502,177.100,22.100,4.000,5.662,379.21,2,-9.00,9,-9.00,0.09,5.70,355.40,19.17,280.16
AOML_Explorer,Ex0726E9,174.223,23062007,5:21:40,38.262,-73.264,390.48,-9.00,1011.44,1009.20,17.86,16.77,33.107,1.688,104.001,28.884,1011.437,177.100,22.300,357.000,4.632,364.03,2,-9.00,9,-9.00,0.10,6.87,0.67,19.41,286.16
AOML_Explorer,Ex0726E9,174.225,23062007,5:24:13,38.247,-73.263,388.52,-9.00,1011.45,1009.20,17.77,16.83,32.901,1.626,104.051,28.875,1011.450,176.100,22.200,357.000,4.632,364.53,2,-9.00,9,-9.00,0.09,6.80,359.41,19.38,285.76
AOML_Explorer,Ex0726E9,174.227,23062007,5:26:46,38.231,-73.262,386.47,-9.00,1011.50,1009.20,17.33,16.80,32.924,1.587,103.442,28.894,1011.501,176.000,22.200,350.000,5.147,368.95,2,-9.00,9,-9.00,0.10,6.41,5.14,19.42,285.24
AOML_Explorer,Ex0726E9,174.229,23062007,5:29:19,38.215,-73.260,385.00,-9.00,1011.45,1009.20,17.29,16.95,32.844,1.684,103.714,28.890,1011.447,175.800,22.400,352.000,4.632,370.47,2,-9.00,9,-9.00,0.09,6.92,1.82,19.49,284.54
AOML_Explorer,Ex0726E9,174.230,23062007,5:31:52,38.199,-73.259,383.62,-9.00,1011.48,1009.20,17.28,17.04,32.858,1.664,103.310,28.902,1011.480,175.700,22.200,349.000,4.118,370.63,2,-9.00,9,-9.00,0.09,7.44,2.31,19.53,283.65
AOML_Explorer,Ex0726E9,174.232,23062007,5:34:25,38.184,-73.257,384.42,-9.00,1011.48,1009.20,17.41,17.06,32.848,1.571,103.910,28.894,1011.482,175.600,22.200,350.000,4.632,369.64,2,-9.00,9,-9.00,0.09,6.91,3.07,19.42,283.48
AOML_Explorer,Ex0726E9,174.234,23062007,5:36:58,38.168,-73.256,386.30,-9.00,1011.50,1009.20,17.46,17.13,32.847,1.688,103.980,28.902,1011.496,175.800,22.300,352.000,4.632,371.67,2,-9.00,9,-9.00,0.08,6.89,1.95,19.41,283.19
AOML_Explorer,Ex0726E9,174.236,23062007,5:39:31,38.152,-73.255,387.62,-9.00,1011.48,1009.20,17.49,16.92,32.991,1.622,103.847,28.916,1011.478,176.900,22.400,354.000,4.632,369.37,2,-9.00,9,-9.00,0.09,6.87,1.62,19.44,284.28
AOML_Explorer,Ex0726E9,174.238,23062007,5:42:04,38.137,-73.254,388.75,-9.00,1011.46,1009.10,17.54,16.84,32.966,1.642,103.774,28.916,1011.462,176.300,22.400,355.000,4.118,368.42,2,-9.00,9,-9.00,0.10,7.38,359.91,19.39,285.13
AOML_Explorer,Ex0726E9,174.239,23062007,5:44:37,38.121,-73.252,389.20,-9.00,1011.50,1009.20,17.44,16.80,32.919,1.798,103.702,28.913,1011.495,176.900,22.300,354.000,4.118,369.77,2,-9.00,9,-9.00,0.10,7.39,0.97,19.39,285.64
AOML_Explorer,Ex0726E9,174.241,23062007,5:47:10,38.105,-73.251,388.35,-9.00,1011.49,1009.20,17.30,16.87,32.842,1.739,104.068,28.919,1011.493,176.500,22.500,353.000,4.632,372.28,2,-9.00,9,-9.00,0.09,6.94,2.03,19.27,285.05
AOML_Explorer,Ex0726E9,174.243,23062007,5:49:43,38.089,-73.250,386.42,-9.00,1011.46,1009.20,17.23,17.13,32.744,1.736,103.338,28.920,1011.458,176.300,22.700,350.000,4.632,375.45,2,-9.00,9,-9.00,0.09,7.11,3.74,19.15,284.03
AOML_Explorer,Ex0726E9,174.245,23062007,5:52:16,38.073,-73.249,385.40,-9.00,1011.54,1009.20,17.29,16.95,32.893,1.711,103.788,28.918,1011.541,176.100,22.700,346.000,4.632,370.75,2,-9.00,9,-9.00,0.09,7.27,5.69,19.07,284.18
AOML_Explorer,Ex0726E9,174.246,23062007,5:54:49,38.057,-73.248,386.20,-9.00,1011.53,1009.20,17.45,16.99,32.842,1.688,103.556,28.929,1011.528,176.300,22.800,350.000,5.147,369.74,2,-9.00,9,-9.00,0.09,6.67,4.77,18.94,285.32
AOML_Explorer,Ex0726E9,174.248,23062007,5:57:22,38.041,-73.247,387.13,-9.00,1011.51,1009.30,17.36,17.13,32.858,1.700,103.567,28.929,1011.505,176.100,22.800,352.000,5.147,374.09,2,-9.00,9,-9.00,0.09,6.62,3.19,18.96,284.63
AOML_Explorer,Ex0726E9,174.250,23062007,5:59:55,38.025,-73.245,386.51,-9.00,1011.53,1009.20,17.44,17.40,32.843,1.659,103.587,28.942,1011.529,176.000,22.800,354.000,5.147,376.46,2,-9.00,9,-9.00,0.09,6.61,1.55,18.92,283.73
AOML_Explorer,Ex0726E9,174.265,23062007,6:21:40,37.986,-73.243,383.53,-9.00,1011.53,1009.20,18.31,17.96,33.177,1.620,104.050,29.062,1011.529,0.000,0.000,339.000,4.632,368.31,2,-9.00,9,-9.00,0.08,7.58,11.43,19.01,279.27
AOML_Explorer,Ex0726E9,174.267,23062007,6:24:13,37.986,-73.243,384.88,-9.00,1011.56,1009.20,18.32,17.80,33.045,1.605,103.657,29.070,1011.559,0.000,0.000,333.000,4.632,367.10,2,-9.00,9,-9.00,0.08,7.91,13.79,19.08,280.42
AOML_Explorer,Ex0726E9,174.269,23062007,6:26:46,37.986,-73.243,385.99,-9.00,1011.61,1009.20,18.20,17.81,32.952,1.828,103.334,29.067,1011.608,0.000,0.000,333.000,4.632,370.34,2,-9.00,9,-9.00,0.09,7.93,13.63,19.13,281.01
AOML_Explorer,Ex0726E9,174.270,23062007,6:29:19,37.986,-73.243,387.50,-9.00,1011.53,1009.10,18.10,17.94,32.989,1.905,103.336,29.060,1011.532,0.000,0.000,325.000,4.632,375.28,2,-9.00,9,-9.00,0.09,8.46,15.90,19.3,280.36